TimeEST,TemperatureF,Dew PointF,Humidity,Sea Level PressureIn,VisibilityMPH,Wind Direction,Wind SpeedMPH,Gust SpeedMPH,PrecipitationIn,Events,Conditions,WindDirDegrees,DateUTC
12:53 AM,71.1,64.0,78,29.91,10.0,North,9.2,-,N/A,,Overcast,360,2014-02-28 05:53:00
1:53 AM,71.1,64.0,78,29.92,10.0,North,8.1,-,N/A,,Overcast,360,2014-02-28 06:53:00
2:53 AM,70.0,64.9,84,29.92,10.0,NNE,5.8,-,0.01,,Overcast,20,2014-02-28 07:53:00
3:53 AM,70.0,64.9,84,29.91,10.0,NE,6.9,-,N/A,,Overcast,40,2014-02-28 08:53:00
4:53 AM,70.0,64.0,81,29.93,10.0,North,3.5,-,0.00,,Overcast,10,2014-02-28 09:53:00
5:53 AM,69.1,66.0,90,29.95,9.0,Calm,Calm,-,0.03,Rain,Light Rain,0,2014-02-28 10:53:00
6:53 AM,69.1,64.9,87,29.95,10.0,NE,3.5,-,0.01,Rain,Light Rain,40,2014-02-28 11:53:00
7:53 AM,68.0,64.9,90,29.99,6.0,Calm,Calm,-,0.02,Rain,Light Rain,0,2014-02-28 12:53:00
8:53 AM,69.1,66.0,90,30.01,10.0,Calm,Calm,-,0.01,,Mostly Cloudy,0,2014-02-28 13:53:00
9:53 AM,71.1,64.0,78,30.04,10.0,Calm,Calm,-,N/A,,Overcast,0,2014-02-28 14:53:00
10:10 AM,70.0,66.0,87,30.03,7.0,NNE,6.9,-,0.00,Rain,Light Rain,30,2014-02-28 15:10:00
10:37 AM,70.0,64.9,84,30.04,10.0,North,5.8,-,0.00,,Overcast,10,2014-02-28 15:37:00
10:53 AM,70.0,64.9,84,30.05,10.0,North,5.8,-,0.00,,Overcast,350,2014-02-28 15:53:00
11:27 AM,71.1,64.0,78,30.05,10.0,North,9.2,-,N/A,,Overcast,350,2014-02-28 16:27:00
11:53 AM,71.1,64.0,78,30.05,10.0,North,6.9,-,N/A,,Overcast,350,2014-02-28 16:53:00
12:05 PM,71.1,64.9,81,30.05,10.0,North,6.9,-,N/A,,Overcast,360,2014-02-28 17:05:00
12:53 PM,73.0,64.9,76,30.03,10.0,NNW,6.9,-,N/A,,Mostly Cloudy,330,2014-02-28 17:53:00
1:53 PM,73.0,64.0,73,30.01,10.0,NNW,6.9,-,N/A,,Partly Cloudy,330,2014-02-28 18:53:00
2:38 PM,73.9,64.0,71,30.01,10.0,NW,6.9,-,N/A,,Mostly Cloudy,320,2014-02-28 19:38:00
2:53 PM,73.0,64.9,76,30.01,10.0,NNW,9.2,-,N/A,,Mostly Cloudy,330,2014-02-28 19:53:00
3:53 PM,73.0,63.0,71,30.00,10.0,NNW,6.9,-,N/A,,Mostly Cloudy,340,2014-02-28 20:53:00
4:14 PM,73.0,64.0,73,30.00,10.0,NNW,9.2,-,N/A,,Scattered Clouds,340,2014-02-28 21:14:00
4:53 PM,71.1,63.0,75,30.01,10.0,NNW,6.9,-,N/A,,Partly Cloudy,330,2014-02-28 21:53:00
5:53 PM,70.0,62.1,76,30.02,10.0,NNW,9.2,-,N/A,,Clear,330,2014-02-28 22:53:00
6:53 PM,70.0,61.0,73,30.03,10.0,North,8.1,-,N/A,,Clear,350,2014-02-28 23:53:00
7:53 PM,69.1,60.1,73,30.04,10.0,North,4.6,-,N/A,,Clear,350,2014-03-01 00:53:00
8:53 PM,70.0,60.1,71,30.07,10.0,NNW,4.6,-,N/A,,Scattered Clouds,330,2014-03-01 01:53:00
9:53 PM,70.0,61.0,73,30.08,10.0,NW,5.8,-,N/A,,Clear,320,2014-03-01 02:53:00
10:22 PM,70.0,60.1,71,30.09,10.0,NNW,6.9,-,N/A,,Partly Cloudy,330,2014-03-01 03:22:00
10:53 PM,70.0,60.1,71,30.09,10.0,NW,8.1,-,N/A,,Clear,320,2014-03-01 03:53:00
11:53 PM,70.0,59.0,68,30.09,10.0,NNW,8.1,-,N/A,,Clear,330,2014-03-01 04:53:00